CDT,Max TemperatureF,Mean TemperatureF,Min TemperatureF,Max Dew PointF,MeanDew PointF,Min DewpointF,Max Humidity, Mean Humidity, Min Humidity, Max Sea Level PressureIn, Mean Sea Level PressureIn, Min Sea Level PressureIn, Max VisibilityMiles, Mean VisibilityMiles, Min VisibilityMiles, Max Wind SpeedMPH, Mean Wind SpeedMPH, Max Gust SpeedMPH,PrecipitationIn, CloudCover, Events, WindDirDegrees
2013-3-1,67,46,24,21,16,12,63,38,13,30.33,30.26,30.21,10,10,10,30,7,37,0.00,0,,335
2013-3-2,70,51,31,28,24,20,61,40,18,30.46,30.33,30.22,10,10,10,16,6,21,0.00,0,,275
2013-3-3,81,59,36,26,21,16,59,34,9,30.21,29.97,29.74,10,10,9,30,17,39,0.00,0,,198
2013-3-4,85,67,49,29,19,8,35,21,6,29.79,29.73,29.65,10,10,10,28,15,39,0.00,1,,222
2013-3-5,67,50,33,34,17,8,56,35,13,30.41,30.33,30.12,10,10,10,35,14,43,0.00,0,,37
2013-3-6,68,48,27,17,12,8,50,31,12,30.42,30.28,30.14,10,10,10,16,6,22,0.00,0,,178
2013-3-7,74,58,41,48,33,14,67,47,26,30.13,30.05,29.99,10,10,10,21,10,28,0.00,0,,173
2013-3-8,73,64,55,58,56,50,84,71,57,30.04,29.94,29.81,10,10,10,29,14,36,T,4,,170
2013-3-9,83,72,61,58,45,23,78,50,21,29.82,29.71,29.60,10,10,10,30,18,39,T,3,Rain-Thunderstorm,231
2013-3-10,63,52,40,26,19,12,45,30,15,30.15,30.01,29.79,10,10,10,31,16,38,0.00,2,,321
2013-3-11,74,52,29,22,16,12,50,31,12,30.19,30.09,29.96,10,10,10,15,6,20,0.00,0,,252
2013-3-12,77,62,46,28,22,15,33,22,11,30.29,30.08,29.96,10,10,10,24,14,31,0.00,0,,304
2013-3-13,79,57,34,34,26,22,56,35,13,30.41,30.30,30.20,10,10,10,15,8,21,0.00,0,,136
2013-3-14,82,67,52,45,37,32,66,42,17,30.28,30.20,30.12,10,10,10,24,13,29,0.00,0,,189
2013-3-15,86,71,55,50,41,36,72,45,17,30.14,30.01,29.86,10,10,10,24,15,33,0.00,0,,191
2013-3-16,93,76,59,47,39,30,62,36,10,29.84,29.71,29.59,10,10,10,25,17,33,0.00,0,,201
2013-3-17,84,68,51,48,39,32,71,44,17,29.83,29.69,29.61,10,10,10,26,8,31,0.00,0,,146
2013-3-18,78,64,50,38,31,19,50,34,18,29.94,29.83,29.70,10,10,10,16,8,18,0.00,0,,332
2013-3-19,86,64,42,48,36,26,76,45,13,30.04,29.90,29.78,10,10,10,30,14,37,0.00,1,,166
2013-3-20,73,61,49,45,33,28,57,39,20,30.29,30.13,29.96,10,10,10,21,10,26,0.00,1,,76
2013-3-21,86,71,56,55,46,30,67,46,25,29.93,29.67,29.47,10,10,10,29,16,37,0.00,0,,194
2013-3-22,74,62,49,57,47,40,93,62,31,29.81,29.69,29.57,10,10,10,21,11,26,0.00,1,,56
2013-3-23,86,67,48,47,31,7,77,42,7,29.85,29.71,29.55,10,9,2,38,15,47,0.00,5,,360
2013-3-24,58,46,34,40,18,10,65,40,15,30.24,30.11,29.91,10,10,10,31,14,36,0.00,1,,359
2013-3-25,57,42,27,15,10,4,50,32,13,30.40,30.30,30.19,10,10,10,15,8,24,0.00,0,,59
2013-3-26,68,49,29,17,13,10,43,27,11,30.44,30.32,30.18,10,10,10,20,8,25,0.00,0,,161
2013-3-27,76,61,45,45,33,17,57,42,26,30.19,30.11,30.00,10,10,10,24,14,32,0.00,0,,180
2013-3-28,82,65,48,54,49,44,86,61,35,30.10,30.04,29.98,10,10,10,20,10,24,0.00,1,,183
2013-3-29,80,71,61,56,55,55,84,65,45,30.09,30.03,29.97,10,10,10,21,10,26,0.00,2,,181
2013-3-30,89,75,61,59,55,43,84,53,21,30.05,29.93,29.80,10,10,10,30,13,36,0.01,2,,198
2013-3-31,83,73,63,61,52,46,78,53,28,30.00,29.89,29.83,10,10,10,26,11,30,T,0,Rain,67